| time (UTC) | temp F | wind direction | speed knots | gust knots | rain 1hr in | rain 24hr in | rain mn in | humidity % | barometer mb |
| 20260510213059 | 89 | 219 | 1.7 | 12.2 | 0.00 | 0.01 | 0.00 | 59 | 1015.9 |
| 20260510211552 | 89 | 173 | 3.5 | 10.4 | 0.00 | 0.01 | 0.00 | 62 | 1015.8 |
| 20260510210054 | 88 | 138 | 3.5 | 8.7 | 0.00 | 0.01 | 0.00 | 63 | 1016.0 |
| 20260510204559 | 88 | 159 | 2.6 | 7.8 | 0.00 | 0.01 | 0.00 | 62 | 1016.1 |
| 20260510203056 | 89 | 176 | 4.3 | 9.6 | 0.00 | 0.01 | 0.00 | 60 | 1015.9 |
| 20260510201554 | 89 | 194 | 2.6 | 8.7 | 0.00 | 0.01 | 0.00 | 64 | 1015.9 |
| 20260510200052 | 89 | 213 | 3.5 | 13.0 | 0.00 | 0.01 | 0.00 | 62 | 1015.9 |
| 20260510194558 | 86 | 226 | 3.5 | 7.8 | 0.00 | 0.01 | 0.00 | 67 | 1016.1 |
| 20260510193055 | 82 | 173 | 1.7 | 7.8 | 0.00 | 0.01 | 0.00 | 79 | 1016.1 |
| 20260510191550 | 80 | 216 | 3.5 | 7.0 | 0.00 | 0.01 | 0.00 | 83 | 1016.3 |
| 20260510190052 | 79 | 194 | 2.6 | 9.6 | 0.00 | 0.01 | 0.00 | 84 | 1016.3 |
| 20260510184558 | 83 | 181 | 7.8 | 14.8 | 0.00 | 0.01 | 0.00 | 70 | 1016.3 |
| 20260510183053 | 88 | 150 | 6.1 | 13.0 | 0.00 | 0.01 | 0.00 | 63 | 1016.5 |
| 20260510181607 | 90 | 159 | 7.0 | 17.4 | 0.00 | 0.01 | 0.00 | 59 | 1016.5 |
| 20260510180107 | 87 | 140 | 5.2 | 12.2 | 0.00 | 0.01 | 0.00 | 63 | 1016.3 |
| 20260510174555 | 90 | 196 | 2.6 | 8.7 | 0.00 | 0.01 | 0.00 | 56 | 1016.3 |
| 20260510173059 | 93 | 180 | 2.6 | 8.7 | 0.00 | 0.01 | 0.00 | 53 | 1016.4 |
| 20260510171551 | 92 | 155 | 2.6 | 8.7 | 0.00 | 0.01 | 0.00 | 54 | 1016.7 |
| 20260510170052 | 91 | 217 | 1.7 | 7.0 | 0.00 | 0.01 | 0.00 | 57 | 1017.0 |
| 20260510164600 | 89 | 137 | 1.7 | 7.8 | 0.00 | 0.01 | 0.00 | 61 | 1017.3 |
| 20260510163054 | 90 | 214 | 1.7 | 6.1 | 0.00 | 0.01 | 0.00 | 61 | 1017.6 |
| 20260510161604 | 91 | 179 | 2.6 | 6.1 | 0.00 | 0.01 | 0.00 | 59 | 1017.6 |
| 20260510160055 | 89 | 215 | 4.3 | 9.6 | 0.00 | 0.01 | 0.00 | 63 | 1017.5 |
| 20260510154557 | 89 | 144 | 2.6 | 8.7 | 0.00 | 0.01 | 0.00 | 65 | 1017.5 |
| 20260510153101 | 88 | 161 | 2.6 | 7.0 | 0.00 | 0.01 | 0.00 | 65 | 1017.4 |
| 20260510151555 | 86 | 114 | 3.5 | 11.3 | 0.00 | 0.01 | 0.00 | 68 | 1017.5 |
| 20260510150124 | 85 | 208 | 4.3 | 8.7 | 0.00 | 0.01 | 0.00 | 70 | 1017.4 |
| 20260510144555 | 85 | 213 | 3.5 | 7.8 | 0.00 | 0.01 | 0.00 | 72 | 1017.3 |
| 20260510143056 | 83 | 140 | 4.3 | 9.6 | 0.00 | 0.01 | 0.00 | 75 | 1017.2 |
| 20260510141552 | 82 | 146 | 5.2 | 8.7 | 0.00 | 0.01 | 0.00 | 78 | 1017.2 |
| 20260510140052 | 81 | 134 | 3.5 | 7.0 | 0.00 | 0.01 | 0.00 | 80 | 1017.4 |
| 20260510134551 | 80 | 129 | 3.5 | 7.0 | 0.00 | 0.01 | 0.00 | 83 | 1017.3 |
| 20260510133051 | 79 | 151 | 2.6 | 7.0 | 0.00 | 0.01 | 0.00 | 86 | 1017.1 |
| 20260510131552 | 79 | 145 | 1.7 | 6.1 | 0.00 | 0.01 | 0.00 | 87 | 1017.0 |
| 20260510130055 | 77 | 128 | 1.7 | 5.2 | 0.00 | 0.01 | 0.00 | 90 | 1017.0 |
| 20260510124555 | 76 | 186 | 0.9 | 2.6 | 0.00 | 0.01 | 0.00 | 92 | 1016.9 |
| 20260510123056 | 75 | 144 | 0.9 | 3.5 | 0.00 | 0.01 | 0.00 | 92 | 1016.7 |
| 20260510121548 | 75 | 148 | 0.9 | 2.6 | 0.00 | 0.01 | 0.00 | 93 | 1016.6 |
| 20260510120054 | 74 | 140 | 1.7 | 4.3 | 0.00 | 0.01 | 0.00 | 94 | 1016.2 |
| 20260510114559 | 74 | 148 | 0.0 | 1.7 | 0.00 | 0.01 | 0.00 | 94 | 1016.1 |
| 20260510113054 | 73 | 0 | 0.0 | 2.6 | 0.00 | 0.01 | 0.00 | 95 | 1015.9 |
| 20260510111602 | 73 | 0 | 0.0 | 0.0 | 0.00 | 0.01 | 0.00 | 95 | 1015.5 |
| 20260510110052 | 73 | 0 | 0.0 | 1.7 | 0.00 | 0.01 | 0.00 | 95 | 1015.4 |
| 20260510104552 | 73 | 138 | 1.7 | 4.3 | 0.00 | 0.01 | 0.00 | 95 | 1015.3 |
| 20260510103059 | 73 | 0 | 0.0 | 1.7 | 0.00 | 0.01 | 0.00 | 95 | 1015.2 |
| 20260510101558 | 73 | 0 | 0.9 | 3.5 | 0.00 | 0.01 | 0.00 | 95 | 1014.7 |
| 20260510100052 | 73 | 0 | 0.0 | 2.6 | 0.00 | 0.01 | 0.00 | 95 | 1014.7 |
| 20260510094604 | 74 | 173 | 0.9 | 4.3 | 0.00 | 0.01 | 0.00 | 94 | 1014.5 |
| 20260510093111 | 74 | 142 | 0.9 | 3.5 | 0.00 | 0.01 | 0.00 | 94 | 1014.5 |
| 20260510091554 | 74 | 149 | 1.7 | 4.3 | 0.00 | 0.01 | 0.00 | 94 | 1014.4 |
| 20260510090114 | 74 | 144 | 1.7 | 4.3 | 0.00 | 0.01 | 0.00 | 94 | 1014.3 |
| 20260510084552 | 74 | 96 | 0.0 | 2.6 | 0.00 | 0.01 | 0.00 | 94 | 1014.0 |
| 20260510083105 | 74 | 121 | 0.9 | 5.2 | 0.00 | 0.01 | 0.00 | 94 | 1013.9 |
| 20260510081553 | 74 | 119 | 1.7 | 5.2 | 0.00 | 0.01 | 0.00 | 94 | 1013.8 |
| 20260510080059 | 74 | 128 | 0.9 | 3.5 | 0.00 | 0.01 | 0.00 | 94 | 1014.1 |
| 20260510074554 | 74 | 131 | 1.7 | 5.2 | 0.00 | 0.01 | 0.00 | 94 | 1014.1 |
| 20260510073056 | 74 | 118 | 0.9 | 6.1 | 0.00 | 0.01 | 0.00 | 94 | 1014.4 |
| 20260510071613 | 74 | 128 | 0.9 | 3.5 | 0.00 | 0.01 | 0.00 | 94 | 1014.4 |
| 20260510070051 | 73 | 140 | 0.9 | 2.6 | 0.00 | 0.01 | 0.00 | 94 | 1014.4 |
| 20260510064600 | 73 | 109 | 0.9 | 5.2 | 0.00 | 0.01 | 0.00 | 94 | 1014.8 |
| 20260510063052 | 73 | 167 | 1.7 | 3.5 | 0.00 | 0.01 | 0.00 | 94 | 1015.0 |
| 20260510061558 | 73 | 100 | 0.0 | 2.6 | 0.00 | 0.01 | 0.00 | 94 | 1015.2 |
| 20260510060055 | 73 | 101 | 1.7 | 3.5 | 0.00 | 0.01 | 0.00 | 95 | 1015.3 |
| 20260510054552 | 73 | 0 | 0.0 | 0.0 | 0.00 | 0.01 | 0.00 | 95 | 1015.3 |
| 20260510053054 | 73 | 0 | 0.0 | 2.6 | 0.00 | 0.01 | 0.00 | 94 | 1015.5 |
| 20260510051601 | 73 | 98 | 0.0 | 2.6 | 0.00 | 0.01 | 0.00 | 94 | 1015.6 |
| 20260510050054 | 73 | 0 | 0.0 | 0.9 | 0.00 | 0.01 | 0.00 | 94 | 1015.9 |
| 20260510044610 | 73 | 100 | 0.0 | 1.7 | 0.00 | 0.01 | 0.00 | 94 | 1016.0 |
| 20260510043053 | 73 | 0 | 0.0 | 0.9 | 0.00 | 0.01 | 0.00 | 94 | 1016.0 |
| 20260510041558 | 73 | 0 | 0.0 | 1.7 | 0.00 | 0.01 | 0.00 | 94 | 1016.2 |
| 20260510040059 | 73 | 0 | 0.0 | 0.9 | 0.00 | 0.01 | 0.00 | 93 | 1016.1 |
| 20260510034552 | 73 | 0 | 0.0 | 0.9 | 0.00 | 0.01 | 0.01 | 93 | 1016.2 |
| 20260510033102 | 73 | 11 | 0.0 | 1.7 | 0.00 | 0.01 | 0.01 | 93 | 1016.0 |
| 20260510031553 | 73 | 11 | 0.0 | 1.7 | 0.00 | 0.01 | 0.01 | 92 | 1016.1 |
| 20260510024553 | 73 | 0 | 0.0 | 2.6 | 0.00 | 0.01 | 0.01 | 91 | 1015.7 |
| 20260510023054 | 74 | 74 | 0.0 | 1.7 | 0.00 | 0.01 | 0.01 | 90 | 1015.6 |
| 20260510021559 | 74 | 0 | 0.0 | 1.7 | 0.00 | 0.01 | 0.01 | 88 | 1015.6 |
| 20260510020056 | 74 | 0 | 0.0 | 1.7 | 0.00 | 0.01 | 0.01 | 88 | 1015.6 |
| 20260510014556 | 75 | 0 | 0.0 | 2.6 | 0.00 | 0.01 | 0.01 | 87 | 1015.3 |
| 20260510013055 | 75 | 346 | 0.9 | 3.5 | 0.00 | 0.01 | 0.01 | 87 | 1015.2 |
| 20260510011600 | 75 | 347 | 0.9 | 2.6 | 0.00 | 0.01 | 0.01 | 87 | 1015.1 |
| 20260510010058 | 75 | 300 | 0.9 | 4.3 | 0.00 | 0.01 | 0.01 | 86 | 1015.1 |
| 20260510004556 | 76 | 332 | 2.6 | 7.8 | 0.01 | 0.01 | 0.01 | 87 | 1015.1 |
| 20260510003100 | 76 | 352 | 2.6 | 9.6 | 0.01 | 0.01 | 0.01 | 90 | 1014.5 |
| 20260510001557 | 76 | 316 | 3.5 | 7.8 | 0.01 | 0.01 | 0.01 | 90 | 1014.2 |
| 20260510000058 | 77 | 347 | 1.7 | 5.2 | 0.01 | 0.01 | 0.01 | 89 | 1014.2 |
| 20260509234555 | 78 | 330 | 1.7 | 8.7 | 0.00 | 0.00 | 0.00 | 87 | 1014.0 |
| 20260509233054 | 78 | 347 | 2.6 | 7.8 | 0.00 | 0.00 | 0.00 | 86 | 1013.8 |
| 20260509231552 | 79 | 14 | 2.6 | 7.8 | 0.00 | 0.00 | 0.00 | 85 | 1013.7 |
| 20260509230059 | 79 | 336 | 1.7 | 7.0 | 0.00 | 0.00 | 0.00 | 84 | 1013.7 |
| 20260509224629 | 80 | 19 | 4.3 | 11.3 | 0.00 | 0.00 | 0.00 | 83 | 1013.5 |
| 20260509223057 | 82 | 332 | 4.3 | 10.4 | 0.00 | 0.00 | 0.00 | 80 | 1013.2 |
| 20260509221555 | 83 | 335 | 4.3 | 11.3 | 0.00 | 0.00 | 0.00 | 76 | 1013.1 |
| 20260509220106 | 85 | 338 | 5.2 | 10.4 | 0.00 | 0.00 | 0.00 | 72 | 1012.8 |
| 20260509214600 | 86 | 292 | 3.5 | 6.1 | 0.00 | 0.00 | 0.00 | 68 | 1012.7 |